Total_Precipitation_Accumulation
0.05 0.05 0.05 0.06 0.05 0.03 0.00 0.00 0.00 0.00 0.00 0.00 0.00 0.00 0.00 0.00 0.00 0.00 0.00 0.00 0.02 0.03 0.05 0.14 0.21 0.25 0.31 0.34 0.32 0.29 0.27 0.32 0.36 0.37 0.41 0.47 0.46 0.43 0.43 0.41 0.41 0.43 0.49 0.50 0.49 0.49 0.47 0.40 0.37
0.05 0.08 0.09 0.09 0.05 0.01 0.00 0.00 0.00 0.00 0.00 0.00 0.00 0.00 0.00 0.00 0.00 0.00 0.00 0.00 0.01 0.01 0.03 0.09 0.19 0.25 0.31 0.33 0.31 0.29 0.28 0.30 0.34 0.38 0.41 0.44 0.45 0.45 0.44 0.41 0.41 0.46 0.54 0.58 0.58 0.56 0.53 0.46 0.41
0.09 0.12 0.11 0.09 0.04 0.00 0.00 0.00 0.00 0.00 0.00 0.00 0.00 0.00 0.00 0.00 0.00 0.00 0.00 0.00 0.00 0.01 0.03 0.09 0.20 0.26 0.32 0.35 0.33 0.31 0.31 0.32 0.35 0.38 0.42 0.48 0.46 0.44 0.41 0.39 0.39 0.45 0.55 0.61 0.62 0.56 0.52 0.49 0.47
0.11 0.16 0.15 0.09 0.02 0.00 0.00 0.00 0.00 0.00 0.00 0.00 0.00 0.00 0.00 0.00 0.00 0.00 0.00 0.00 0.01 0.02 0.03 0.11 0.21 0.28 0.33 0.36 0.36 0.34 0.34 0.37 0.39 0.41 0.45 0.51 0.51 0.48 0.44 0.39 0.38 0.39 0.46 0.54 0.55 0.52 0.52 0.51 0.45
0.16 0.17 0.15 0.07 0.01 0.00 0.00 0.00 0.00 0.00 0.00 0.00 0.00 0.00 0.00 0.00 0.00 0.00 0.00 0.00 0.01 0.02 0.04 0.13 0.24 0.32 0.36 0.38 0.38 0.39 0.39 0.42 0.44 0.46 0.51 0.54 0.54 0.52 0.49 0.45 0.41 0.38 0.39 0.43 0.46 0.47 0.49 0.50 0.44
0.22 0.21 0.14 0.05 0.01 0.00 0.00 0.00 0.00 0.00 0.00 0.00 0.00 0.00 0.00 0.00 0.00 0.00 0.00 0.01 0.01 0.02 0.06 0.15 0.29 0.35 0.40 0.43 0.42 0.44 0.46 0.49 0.50 0.52 0.56 0.57 0.55 0.54 0.51 0.49 0.43 0.38 0.37 0.36 0.37 0.40 0.43 0.44 0.42
0.22 0.22 0.12 0.05 0.02 0.01 0.01 0.00 0.01 0.00 0.00 0.00 0.00 0.01 0.01 0.01 0.01 0.01 0.01 0.02 0.03 0.04 0.08 0.17 0.29 0.36 0.44 0.47 0.47 0.48 0.51 0.52 0.56 0.57 0.58 0.58 0.56 0.56 0.57 0.53 0.46 0.43 0.41 0.38 0.34 0.33 0.34 0.33 0.36
0.25 0.29 0.15 0.06 0.03 0.02 0.00 0.00 0.01 0.01 0.01 0.00 0.01 0.01 0.01 0.01 0.01 0.02 0.03 0.04 0.05 0.08 0.12 0.19 0.29 0.36 0.42 0.48 0.53 0.52 0.54 0.57 0.61 0.62 0.60 0.57 0.58 0.60 0.58 0.52 0.46 0.46 0.46 0.42 0.38 0.35 0.32 0.28 0.27
0.35 0.40 0.19 0.06 0.04 0.03 0.02 0.02 0.01 0.01 0.02 0.01 0.01 0.01 0.01 0.01 0.02 0.03 0.06 0.08 0.11 0.14 0.18 0.26 0.34 0.40 0.46 0.51 0.56 0.62 0.66 0.71 0.73 0.70 0.66 0.66 0.64 0.61 0.53 0.46 0.45 0.47 0.48 0.43 0.41 0.40 0.36 0.32 0.25
0.38 0.34 0.15 0.04 0.03 0.05 0.05 0.05 0.04 0.04 0.03 0.02 0.02 0.02 0.02 0.02 0.03 0.05 0.07 0.09 0.12 0.16 0.21 0.28 0.39 0.45 0.53 0.56 0.65 0.76 0.77 0.79 0.78 0.68 0.64 0.66 0.60 0.58 0.53 0.48 0.47 0.51 0.50 0.47 0.46 0.45 0.43 0.37 0.27
0.30 0.23 0.10 0.06 0.04 0.07 0.07 0.07 0.08 0.09 0.07 0.03 0.04 0.04 0.03 0.04 0.06 0.09 0.11 0.11 0.11 0.13 0.20 0.28 0.40 0.51 0.56 0.59 0.67 0.77 0.80 0.79 0.79 0.74 0.69 0.67 0.68 0.65 0.62 0.58 0.59 0.57 0.54 0.53 0.52 0.55 0.50 0.45 0.40
0.23 0.16 0.11 0.09 0.09 0.10 0.11 0.10 0.10 0.10 0.08 0.04 0.04 0.06 0.06 0.07 0.08 0.10 0.12 0.12 0.14 0.17 0.23 0.32 0.44 0.53 0.56 0.57 0.64 0.70 0.72 0.71 0.71 0.71 0.72 0.74 0.73 0.69 0.67 0.64 0.65 0.66 0.62 0.59 0.56 0.54 0.51 0.48 0.44
0.21 0.12 0.09 0.10 0.12 0.13 0.13 0.11 0.10 0.07 0.04 0.05 0.05 0.06 0.08 0.08 0.09 0.09 0.11 0.17 0.18 0.20 0.27 0.38 0.46 0.54 0.60 0.63 0.68 0.71 0.68 0.64 0.66 0.69 0.72 0.68 0.62 0.57 0.53 0.52 0.51 0.48 0.46 0.46 0.47 0.48 0.47 0.46 0.43
0.17 0.12 0.09 0.11 0.12 0.14 0.15 0.11 0.09 0.05 0.03 0.05 0.07 0.07 0.07 0.08 0.09 0.10 0.12 0.18 0.22 0.23 0.30 0.42 0.51 0.57 0.65 0.65 0.67 0.70 0.68 0.65 0.68 0.67 0.64 0.62 0.57 0.52 0.46 0.44 0.43 0.39 0.35 0.33 0.33 0.33 0.34 0.35 0.35
0.20 0.21 0.15 0.09 0.10 0.12 0.19 0.18 0.07 0.04 0.04 0.07 0.09 0.08 0.07 0.08 0.10 0.11 0.12 0.14 0.20 0.26 0.34 0.44 0.55 0.67 0.72 0.70 0.71 0.74 0.73 0.70 0.69 0.67 0.64 0.62 0.58 0.54 0.50 0.46 0.42 0.39 0.37 0.38 0.37 0.36 0.34 0.31 0.29
0.30 0.35 0.26 0.10 0.08 0.12 0.27 0.23 0.06 0.04 0.08 0.10 0.10 0.09 0.09 0.08 0.10 0.13 0.15 0.16 0.20 0.29 0.39 0.47 0.60 0.75 0.81 0.79 0.79 0.78 0.77 0.79 0.75 0.71 0.69 0.64 0.59 0.55 0.53 0.51 0.47 0.44 0.44 0.44 0.44 0.40 0.37 0.33 0.30
0.41 0.37 0.22 0.09 0.08 0.15 0.27 0.20 0.05 0.05 0.09 0.10 0.11 0.11 0.10 0.10 0.11 0.14 0.17 0.19 0.21 0.29 0.39 0.50 0.60 0.75 0.87 0.91 0.88 0.86 0.81 0.83 0.83 0.77 0.71 0.68 0.61 0.56 0.54 0.52 0.52 0.54 0.56 0.53 0.49 0.45 0.40 0.37 0.33
0.38 0.25 0.16 0.09 0.08 0.14 0.19 0.14 0.06 0.06 0.10 0.10 0.11 0.12 0.12 0.14 0.15 0.17 0.20 0.23 0.25 0.29 0.38 0.51 0.63 0.80 0.92 1.08 1.10 1.07 0.99 0.90 0.87 0.84 0.73 0.67 0.65 0.62 0.59 0.57 0.57 0.61 0.63 0.59 0.55 0.48 0.43 0.40 0.39
0.25 0.25 0.18 0.07 0.06 0.15 0.15 0.10 0.08 0.08 0.10 0.11 0.11 0.14 0.15 0.16 0.19 0.21 0.26 0.32 0.35 0.37 0.42 0.51 0.65 0.81 0.98 1.11 1.18 1.14 1.09 0.94 0.88 0.87 0.82 0.72 0.68 0.70 0.68 0.63 0.64 0.62 0.64 0.61 0.57 0.55 0.53 0.47 0.45
0.28 0.32 0.23 0.13 0.08 0.17 0.17 0.10 0.07 0.08 0.11 0.13 0.13 0.16 0.18 0.16 0.18 0.19 0.24 0.35 0.41 0.43 0.46 0.50 0.61 0.73 0.91 1.04 1.09 1.15 1.09 1.01 0.91 0.88 0.86 0.79 0.70 0.73 0.79 0.73 0.67 0.66 0.63 0.65 0.65 0.62 0.61 0.59 0.53
0.32 0.29 0.23 0.19 0.16 0.20 0.24 0.17 0.06 0.05 0.07 0.10 0.11 0.13 0.16 0.17 0.18 0.19 0.23 0.32 0.41 0.44 0.49 0.53 0.58 0.65 0.77 1.02 1.24 1.36 1.40 1.28 1.12 1.00 0.92 0.81 0.74 0.68 0.76 0.80 0.74 0.70 0.67 0.64 0.63 0.62 0.60 0.61 0.54
0.35 0.19 0.20 0.24 0.37 0.38 0.33 0.35 0.08 0.04 0.05 0.07 0.09 0.10 0.11 0.14 0.15 0.16 0.20 0.28 0.36 0.43 0.53 0.62 0.61 0.67 0.77 0.94 1.25 1.41 1.46 1.34 1.08 0.92 0.89 0.86 0.80 0.73 0.70 0.77 0.79 0.77 0.75 0.71 0.65 0.63 0.61 0.65 0.65
0.26 0.19 0.23 0.28 0.45 0.54 0.38 0.42 0.14 0.06 0.07 0.06 0.06 0.08 0.09 0.12 0.14 0.13 0.16 0.21 0.31 0.44 0.55 0.67 0.72 0.77 0.86 0.93 1.12 1.35 1.46 1.39 1.25 1.10 0.99 0.92 0.90 0.86 0.77 0.74 0.78 0.80 0.79 0.78 0.72 0.67 0.67 0.68 0.70
0.23 0.29 0.37 0.45 0.76 1.00 0.37 0.35 0.20 0.11 0.13 0.10 0.08 0.09 0.10 0.12 0.15 0.13 0.13 0.17 0.27 0.42 0.50 0.64 0.77 0.81 0.93 0.98 1.09 1.22 1.39 1.49 1.46 1.35 1.22 1.07 1.01 0.96 0.93 0.80 0.77 0.79 0.79 0.80 0.77 0.71 0.68 0.69 0.68
0.42 0.75 1.15 1.24 1.35 0.87 0.18 0.24 0.22 0.12 0.09 0.12 0.14 0.12 0.12 0.12 0.14 0.13 0.12 0.14 0.21 0.39 0.49 0.60 0.76 0.79 0.88 0.95 1.04 1.16 1.30 1.45 1.56 1.47 1.31 1.20 1.16 1.07 0.96 0.92 0.83 0.80 0.79 0.79 0.79 0.78 0.71 0.67 0.71
0.46 0.71 1.01 0.93 0.60 0.22 0.11 0.19 0.17 0.10 0.06 0.06 0.08 0.11 0.12 0.12 0.12 0.14 0.14 0.14 0.18 0.27 0.40 0.51 0.70 0.74 0.78 0.86 0.95 1.09 1.26 1.44 1.53 1.56 1.39 1.27 1.19 1.08 0.96 0.93 0.87 0.82 0.83 0.85 0.83 0.80 0.76 0.72 0.68
0.43 0.47 0.45 0.66 0.49 0.29 0.20 0.15 0.11 0.06 0.04 0.03 0.04 0.06 0.09 0.12 0.11 0.12 0.15 0.15 0.18 0.24 0.33 0.44 0.66 0.73 0.70 0.77 0.86 0.98 1.13 1.34 1.44 1.48 1.46 1.34 1.26 1.19 1.12 1.03 0.98 0.91 0.89 0.87 0.87 0.84 0.78 0.77 0.76
0.37 0.46 0.51 0.85 0.84 0.51 0.29 0.17 0.17 0.12 0.08 0.06 0.06 0.07 0.08 0.10 0.10 0.10 0.13 0.14 0.17 0.21 0.30 0.41 0.57 0.73 0.73 0.74 0.81 0.90 0.98 1.15 1.30 1.42 1.51 1.40 1.34 1.30 1.31 1.25 1.18 1.08 1.03 1.00 0.96 0.92 0.83 0.81 0.80
0.43 0.56 0.73 0.78 0.62 0.52 0.40 0.28 0.25 0.18 0.14 0.11 0.09 0.08 0.08 0.09 0.10 0.10 0.12 0.12 0.15 0.18 0.25 0.38 0.50 0.65 0.78 0.81 0.79 0.88 0.96 1.08 1.18 1.23 1.31 1.40 1.40 1.36 1.41 1.45 1.39 1.31 1.21 1.17 1.15 1.08 1.01 0.94 0.86
0.46 0.54 0.64 0.80 0.62 0.36 0.37 0.32 0.22 0.15 0.13 0.12 0.10 0.08 0.07 0.08 0.09 0.10 0.11 0.12 0.13 0.16 0.21 0.31 0.46 0.61 0.72 0.81 0.85 0.87 0.95 1.08 1.14 1.11 1.11 1.18 1.29 1.32 1.37 1.54 1.56 1.50 1.39 1.30 1.31 1.31 1.21 1.15 1.05